TimeEST,TemperatureF,Dew PointF,Humidity,Sea Level PressureIn,VisibilityMPH,Wind Direction,Wind SpeedMPH,Gust SpeedMPH,PrecipitationIn,Events,Conditions,WindDirDegrees,DateUTC
12:11 AM,55.4,53.6,94,29.41,1.5,South,8.1,-,0.01,Rain,Light Rain,180,2013-01-31 05:11:00
12:51 AM,55.0,54.0,96,29.38,1.0,South,8.1,-,0.01,,Overcast,180,2013-01-31 05:51:00
1:16 AM,55.4,53.6,94,29.35,3.0,South,10.4,17.3,N/A,,Overcast,170,2013-01-31 06:16:00
1:51 AM,55.0,54.0,96,29.30,2.0,SSE,11.5,-,0.00,,Overcast,160,2013-01-31 06:51:00
1:59 AM,55.4,53.6,94,29.29,1.0,South,11.5,20.7,0.01,Rain,Light Rain,170,2013-01-31 06:59:00
2:15 AM,55.4,53.6,94,29.28,1.2,SSE,6.9,-,0.01,Rain,Light Rain,160,2013-01-31 07:15:00
2:51 AM,55.0,54.0,96,29.23,1.2,SSE,10.4,18.4,0.07,Rain,Rain,160,2013-01-31 07:51:00
3:02 AM,55.4,53.6,94,29.22,1.2,SSE,10.4,17.3,0.00,Rain,Light Rain,160,2013-01-31 08:02:00
3:11 AM,53.6,53.6,100,29.21,0.8,South,6.9,18.4,0.00,,Overcast,170,2013-01-31 08:11:00
3:51 AM,55.9,55.0,97,29.15,1.5,SSE,11.5,20.7,0.01,Rain,Light Rain,160,2013-01-31 08:51:00
4:01 AM,55.4,55.4,100,29.14,2.5,South,10.4,18.4,0.01,Rain,Light Rain,170,2013-01-31 09:01:00
4:10 AM,55.4,55.4,100,29.13,4.0,South,10.4,25.3,0.01,Rain,Light Rain,170,2013-01-31 09:10:00
4:51 AM,57.0,55.9,96,29.08,5.0,South,11.5,26.5,0.02,Rain,Light Rain,170,2013-01-31 09:51:00
5:30 AM,57.2,55.4,94,29.04,6.0,South,17.3,27.6,0.02,Rain,Light Rain,170,2013-01-31 10:30:00
5:37 AM,57.2,55.4,94,29.02,5.0,South,11.5,27.6,0.02,Rain,Light Rain,180,2013-01-31 10:37:00
5:49 AM,57.2,55.4,94,29.01,4.0,South,15.0,32.2,0.05,Rain,Rain,180,2013-01-31 10:49:00
5:51 AM,57.9,55.9,93,29.00,4.0,South,18.4,32.2,0.05,Rain,Rain,170,2013-01-31 10:51:00
6:38 AM,57.2,55.4,94,28.94,9.0,South,16.1,27.6,0.04,Rain,Light Rain,180,2013-01-31 11:38:00
6:51 AM,59.0,55.9,90,28.93,4.0,South,20.7,33.4,0.05,Rain,Light Rain,170,2013-01-31 11:51:00
7:12 AM,57.2,55.4,94,28.98,1.2,SSW,8.1,35.7,0.15,Rain,Heavy Rain,210,2013-01-31 12:12:00
7:24 AM,57.2,53.6,88,28.98,2.0,SW,10.4,21.9,0.19,Rain,Rain,230,2013-01-31 12:24:00
7:35 AM,55.4,53.6,94,28.98,10.0,Variable,3.5,-,0.19,Rain,Light Rain,0,2013-01-31 12:35:00
7:51 AM,55.9,54.0,93,28.94,4.0,South,6.9,-,0.21,Rain,Light Rain,180,2013-01-31 12:51:00
8:51 AM,57.0,53.1,87,28.89,10.0,South,10.4,20.7,0.00,,Mostly Cloudy,170,2013-01-31 13:51:00
9:51 AM,48.9,44.1,83,28.92,10.0,West,9.2,25.3,0.02,,Overcast,260,2013-01-31 14:51:00
10:01 AM,48.2,42.8,82,28.95,10.0,West,9.2,24.2,0.00,Rain,Light Rain,260,2013-01-31 15:01:00
10:22 AM,46.4,39.2,76,28.98,10.0,West,9.2,28.8,0.00,Rain,Light Rain,280,2013-01-31 15:22:00
10:51 AM,43.0,37.0,80,28.98,10.0,Variable,6.9,23.0,0.01,Rain,Light Rain,0,2013-01-31 15:51:00
11:51 AM,46.9,32.0,56,29.03,10.0,West,13.8,31.1,0.00,,Scattered Clouds,270,2013-01-31 16:51:00
12:51 PM,45.0,25.0,46,29.10,10.0,West,13.8,31.1,N/A,,Partly Cloudy,280,2013-01-31 17:51:00
1:51 PM,43.0,19.0,38,29.13,10.0,West,16.1,39.1,N/A,,Clear,270,2013-01-31 18:51:00
2:51 PM,41.0,17.1,38,29.18,10.0,WSW,11.5,27.6,N/A,,Unknown,250,2013-01-31 19:51:00
3:51 PM,39.0,14.0,36,29.24,10.0,West,16.1,38.0,N/A,,Scattered Clouds,270,2013-01-31 20:51:00
4:51 PM,36.0,12.0,37,29.29,10.0,West,13.8,35.7,N/A,,Clear,260,2013-01-31 21:51:00
5:51 PM,35.1,12.0,39,29.33,10.0,WNW,8.1,16.1,N/A,,Scattered Clouds,300,2013-01-31 22:51:00
6:51 PM,34.0,9.0,35,29.37,10.0,West,10.4,20.7,N/A,,Partly Cloudy,280,2013-01-31 23:51:00
7:51 PM,33.1,10.0,38,29.40,10.0,Variable,6.9,21.9,N/A,,Clear,0,2013-02-01 00:51:00
8:51 PM,32.0,9.0,38,29.42,10.0,West,9.2,21.9,N/A,,Scattered Clouds,260,2013-02-01 01:51:00
9:51 PM,30.9,7.0,37,29.45,10.0,West,8.1,23.0,N/A,,Clear,270,2013-02-01 02:51:00
10:51 PM,30.0,6.1,36,29.47,10.0,West,9.2,24.2,N/A,,Clear,270,2013-02-01 03:51:00
11:51 PM,30.0,6.1,36,29.48,10.0,West,9.2,19.6,N/A,,Clear,280,2013-02-01 04:51:00